| time (UTC) | temp F | wind direction | speed MPH | gust MPH | rain 1hr in | rain 24hr in | rain mn in | humidity % | barometer mb |
| 20260831234000 | 79 | 180 | 0.0 | 3.0 | 0.00 | 0.11 | 0.11 | 84 | 1011.9 |
| 20260831233504 | 79 | 244 | 0.0 | 1.0 | 0.00 | 0.11 | 0.11 | 84 | 1011.9 |
| 20260831233000 | 79 | 222 | 0.0 | 1.0 | 0.00 | 0.11 | 0.11 | 84 | 1011.8 |
| 20260831232500 | 79 | 222 | 0.0 | 0.0 | 0.00 | 0.11 | 0.11 | 84 | 1011.8 |
| 20260831231959 | 79 | 222 | 0.0 | 3.0 | 0.00 | 0.11 | 0.11 | 84 | 1011.9 |
| 20260831231500 | 79 | 222 | 0.0 | 3.0 | 0.00 | 0.11 | 0.11 | 83 | 1012.0 |
| 20260831231000 | 79 | 185 | 0.0 | 3.0 | 0.00 | 0.11 | 0.11 | 83 | 1012.0 |
| 20260831230501 | 79 | 205 | 1.0 | 3.0 | 0.00 | 0.11 | 0.11 | 83 | 1011.9 |
| 20260831225959 | 79 | 232 | 0.0 | 3.0 | 0.00 | 0.11 | 0.11 | 83 | 1011.9 |
| 20260831225459 | 79 | 234 | 1.0 | 3.0 | 0.00 | 0.11 | 0.11 | 83 | 1011.8 |
| 20260831224959 | 80 | 174 | 0.0 | 3.0 | 0.00 | 0.11 | 0.11 | 82 | 1011.7 |
| 20260831224459 | 80 | 196 | 1.0 | 4.0 | 0.00 | 0.11 | 0.11 | 82 | 1011.8 |
| 20260831224000 | 80 | 276 | 0.0 | 6.0 | 0.00 | 0.11 | 0.11 | 82 | 1011.6 |
| 20260831223459 | 80 | 192 | 1.0 | 4.0 | 0.00 | 0.11 | 0.11 | 81 | 1011.6 |
| 20260831215459 | 82 | 260 | 3.0 | 12.0 | 0.00 | 0.11 | 0.11 | 75 | 1011.7 |
| 20260831214959 | 82 | 205 | 2.0 | 8.0 | 0.00 | 0.11 | 0.11 | 75 | 1011.8 |
| 20260831214458 | 82 | 203 | 2.0 | 8.0 | 0.00 | 0.11 | 0.11 | 76 | 1011.7 |
| 20260831213959 | 82 | 184 | 5.0 | 9.0 | 0.00 | 0.11 | 0.11 | 74 | 1011.7 |
| 20260831213500 | 82 | 159 | 1.0 | 8.0 | 0.00 | 0.11 | 0.11 | 78 | 1011.8 |
| 20260831212959 | 82 | 30 | 1.0 | 8.0 | 0.00 | 0.11 | 0.11 | 75 | 1011.8 |
| 20260831212459 | 82 | 297 | 2.0 | 7.0 | 0.00 | 0.11 | 0.11 | 75 | 1011.7 |
| 20260831211802 | 82 | 176 | 3.0 | 10.0 | 0.00 | 0.11 | 0.11 | 74 | 1011.7 |
| 20260831211303 | 82 | 196 | 2.0 | 8.0 | 0.00 | 0.11 | 0.11 | 75 | 1011.7 |
| 20260831210803 | 82 | 151 | 3.0 | 11.0 | 0.00 | 0.11 | 0.11 | 74 | 1011.7 |
| 20260831210302 | 82 | 228 | 4.0 | 11.0 | 0.00 | 0.11 | 0.11 | 73 | 1011.7 |
| 20260831205802 | 82 | 187 | 3.0 | 9.0 | 0.00 | 0.11 | 0.11 | 74 | 1011.8 |
| 20260831205305 | 82 | 207 | 3.0 | 10.0 | 0.00 | 0.11 | 0.11 | 73 | 1011.8 |
| 20260831195306 | 80 | 212 | 2.0 | 13.0 | 0.00 | 0.11 | 0.11 | 79 | 1012.1 |
| 20260831194804 | 80 | 186 | 4.0 | 13.0 | 0.00 | 0.11 | 0.11 | 76 | 1012.0 |
| 20260831194303 | 81 | 97 | 3.0 | 6.0 | 0.00 | 0.11 | 0.11 | 78 | 1012.1 |
| 20260831193804 | 81 | 257 | 1.0 | 8.0 | 0.00 | 0.11 | 0.11 | 76 | 1012.2 |
| 20260831193304 | 80 | 173 | 2.0 | 9.0 | 0.00 | 0.11 | 0.11 | 79 | 1012.3 |
| 20260831192804 | 78 | 284 | 4.0 | 9.0 | 0.00 | 0.11 | 0.11 | 82 | 1012.3 |
| 20260831192305 | 77 | 155 | 2.0 | 6.0 | 0.00 | 0.11 | 0.11 | 84 | 1012.4 |
| 20260831191803 | 76 | 224 | 2.0 | 6.0 | 0.00 | 0.11 | 0.11 | 84 | 1012.4 |
| 20260831191303 | 76 | 228 | 2.0 | 10.0 | 0.00 | 0.11 | 0.11 | 84 | 1012.5 |
| 20260831190803 | 75 | 236 | 2.0 | 7.0 | 0.00 | 0.11 | 0.11 | 85 | 1013.0 |
| 20260831190304 | 75 | 223 | 2.0 | 8.0 | 0.00 | 0.11 | 0.11 | 85 | 1013.0 |
| 20260831185802 | 75 | 182 | 2.0 | 8.0 | 0.00 | 0.11 | 0.11 | 85 | 1013.0 |
| 20260831185301 | 75 | 192 | 1.0 | 3.0 | 0.00 | 0.11 | 0.11 | 85 | 1013.1 |
| 20260831184802 | 76 | 105 | 0.0 | 2.0 | 0.00 | 0.11 | 0.11 | 84 | 1013.3 |
| 20260831184302 | 76 | 155 | 0.0 | 3.0 | 0.00 | 0.11 | 0.11 | 84 | 1013.4 |
| 20260831183802 | 76 | 221 | 0.0 | 3.0 | 0.00 | 0.11 | 0.11 | 84 | 1013.3 |
| 20260831183302 | 76 | 181 | 0.0 | 3.0 | 0.00 | 0.11 | 0.11 | 84 | 1012.9 |
| 20260831182803 | 76 | 217 | 1.0 | 5.0 | 0.00 | 0.11 | 0.11 | 84 | 1012.9 |
| 20260831182305 | 76 | 178 | 1.0 | 2.0 | 0.00 | 0.11 | 0.11 | 84 | 1013.3 |
| 20260831181802 | 77 | 157 | 1.0 | 3.0 | 0.00 | 0.11 | 0.11 | 84 | 1013.4 |
| 20260831181302 | 77 | 170 | 1.0 | 3.0 | 0.00 | 0.11 | 0.11 | 83 | 1013.8 |
| 20260831173303 | 79 | 147 | 2.0 | 7.0 | 0.00 | 0.11 | 0.11 | 83 | 1013.4 |
| 20260831172803 | 79 | 253 | 2.0 | 7.0 | 0.00 | 0.11 | 0.11 | 82 | 1013.3 |
| 20260831172306 | 78 | 192 | 2.0 | 6.0 | 0.00 | 0.11 | 0.11 | 82 | 1013.4 |
| 20260831171802 | 78 | 172 | 2.0 | 7.0 | 0.00 | 0.11 | 0.11 | 83 | 1013.3 |
| 20260831171303 | 78 | 266 | 2.0 | 7.0 | 0.00 | 0.11 | 0.11 | 84 | 1013.3 |
| 20260831170803 | 77 | 205 | 3.0 | 7.0 | 0.00 | 0.11 | 0.11 | 83 | 1013.4 |
| 20260831170304 | 78 | 130 | 1.0 | 8.0 | 0.00 | 0.11 | 0.11 | 84 | 1013.4 |
| 20260831165802 | 78 | 226 | 2.0 | 7.0 | 0.00 | 0.11 | 0.11 | 82 | 1013.4 |
| 20260831165305 | 78 | 139 | 3.0 | 7.0 | 0.00 | 0.11 | 0.11 | 83 | 1013.6 |
| 20260831164803 | 78 | 224 | 3.0 | 8.0 | 0.00 | 0.11 | 0.11 | 86 | 1014.0 |
| 20260831164302 | 77 | 219 | 1.0 | 6.0 | 0.00 | 0.11 | 0.11 | 86 | 1014.0 |
| 20260831163802 | 77 | 242 | 2.0 | 6.0 | 0.00 | 0.11 | 0.11 | 85 | 1014.0 |
| 20260831163302 | 76 | 187 | 2.0 | 5.0 | 0.00 | 0.11 | 0.11 | 86 | 1013.8 |
| 20260831162803 | 76 | 208 | 2.0 | 8.0 | 0.00 | 0.11 | 0.11 | 88 | 1013.8 |
| 20260831162301 | 75 | 215 | 4.0 | 8.0 | 0.00 | 0.11 | 0.11 | 88 | 1013.9 |
| 20260831161802 | 74 | 200 | 2.0 | 9.0 | 0.00 | 0.11 | 0.11 | 89 | 1014.0 |
| 20260831161302 | 74 | 204 | 2.0 | 9.0 | 0.00 | 0.11 | 0.11 | 89 | 1014.2 |
| 20260831160803 | 74 | 199 | 1.0 | 7.0 | 0.00 | 0.11 | 0.11 | 90 | 1014.2 |
| 20260831160301 | 73 | 179 | 3.0 | 7.0 | 0.00 | 0.11 | 0.11 | 89 | 1014.3 |
| 20260831155803 | 73 | 271 | 1.0 | 6.0 | 0.00 | 0.11 | 0.11 | 90 | 1014.4 |
| 20260831155302 | 73 | 230 | 1.0 | 7.0 | 0.00 | 0.11 | 0.11 | 90 | 1014.3 |
| 20260831154802 | 72 | 225 | 3.0 | 7.0 | 0.00 | 0.11 | 0.11 | 90 | 1014.2 |
| 20260831154303 | 72 | 181 | 1.0 | 4.0 | 0.00 | 0.11 | 0.11 | 90 | 1014.2 |
| 20260831153802 | 72 | 143 | 1.0 | 5.0 | 0.00 | 0.11 | 0.11 | 91 | 1014.3 |
| 20260831153301 | 72 | 182 | 2.0 | 5.0 | 0.00 | 0.11 | 0.11 | 91 | 1014.4 |
| 20260831152801 | 72 | 232 | 1.0 | 4.0 | 0.01 | 0.11 | 0.11 | 91 | 1014.6 |
| 20260831152305 | 72 | 216 | 1.0 | 3.0 | 0.08 | 0.11 | 0.11 | 91 | 1014.3 |
| 20260831151802 | 72 | 175 | 1.0 | 3.0 | 0.08 | 0.11 | 0.11 | 91 | 1014.5 |
| 20260831143801 | 71 | 67 | 0.0 | 3.0 | 0.10 | 0.11 | 0.11 | 91 | 1015.1 |
| 20260831143301 | 71 | 67 | 1.0 | 3.0 | 0.10 | 0.11 | 0.11 | 91 | 1014.9 |
| 20260831142802 | 71 | 59 | 0.0 | 2.0 | 0.10 | 0.10 | 0.10 | 91 | 1014.6 |
| 20260831142305 | 71 | 59 | 0.0 | 0.0 | 0.03 | 0.03 | 0.03 | 91 | 1014.8 |
| 20260831141802 | 71 | 59 | 0.0 | 3.0 | 0.03 | 0.03 | 0.03 | 91 | 1015.0 |
| 20260831141302 | 71 | 46 | 2.0 | 3.0 | 0.03 | 0.03 | 0.03 | 91 | 1014.7 |
| 20260831140801 | 71 | 271 | 0.0 | 1.0 | 0.03 | 0.03 | 0.03 | 91 | 1014.6 |
| 20260831140302 | 71 | 271 | 0.0 | 0.0 | 0.02 | 0.03 | 0.02 | 91 | 1014.8 |
| 20260831135802 | 71 | 271 | 0.0 | 0.0 | 0.02 | 0.03 | 0.02 | 91 | 1014.8 |
| 20260831135302 | 71 | 271 | 0.0 | 0.0 | 0.02 | 0.03 | 0.02 | 90 | 1014.8 |
| 20260831134802 | 71 | 271 | 0.0 | 0.0 | 0.02 | 0.03 | 0.02 | 91 | 1014.8 |
| 20260831134302 | 71 | 271 | 0.0 | 0.0 | 0.02 | 0.03 | 0.02 | 91 | 1015.1 |
| 20260831133802 | 71 | 271 | 0.0 | 0.0 | 0.01 | 0.02 | 0.01 | 91 | 1015.2 |
| 20260831133302 | 71 | 271 | 0.0 | 0.0 | 0.01 | 0.02 | 0.01 | 91 | 1015.4 |
| 20260831132801 | 71 | 271 | 0.0 | 0.0 | 0.00 | 0.01 | 0.00 | 91 | 1015.4 |
| 20260831132306 | 71 | 271 | 0.0 | 0.0 | 0.00 | 0.01 | 0.00 | 91 | 1015.4 |
| 20260831131801 | 71 | 271 | 0.0 | 0.0 | 0.00 | 0.01 | 0.00 | 91 | 1015.2 |
| 20260831131302 | 71 | 271 | 0.0 | 0.0 | 0.00 | 0.01 | 0.00 | 90 | 1015.2 |
| 20260831130802 | 70 | 271 | 0.0 | 0.0 | 0.00 | 0.01 | 0.00 | 90 | 1015.0 |
| 20260831130305 | 70 | 271 | 0.0 | 1.0 | 0.00 | 0.01 | 0.00 | 90 | 1015.0 |
| 20260831125803 | 70 | 271 | 0.0 | 1.0 | 0.00 | 0.06 | 0.00 | 90 | 1014.9 |
| 20260831121802 | 70 | 271 | 1.0 | 3.0 | 0.00 | 0.06 | 0.00 | 91 | 1014.1 |
| 20260831121302 | 69 | 234 | 1.0 | 4.0 | 0.00 | 0.06 | 0.00 | 91 | 1013.9 |
| 20260831120802 | 69 | 186 | 1.0 | 4.0 | 0.00 | 0.06 | 0.00 | 91 | 1013.8 |
| 20260831120304 | 69 | 210 | 1.0 | 2.0 | 0.00 | 0.06 | 0.00 | 90 | 1013.9 |
| 20260831115803 | 69 | 192 | 0.0 | 1.0 | 0.00 | 0.24 | 0.00 | 90 | 1014.1 |
| 20260831115305 | 69 | 192 | 0.0 | 1.0 | 0.00 | 0.24 | 0.00 | 90 | 1014.2 |
| 20260831114802 | 69 | 192 | 0.0 | 1.0 | 0.00 | 0.24 | 0.00 | 91 | 1014.1 |
| 20260831114302 | 69 | 203 | 0.0 | 1.0 | 0.00 | 0.24 | 0.00 | 90 | 1014.1 |
| 20260831113803 | 69 | 204 | 0.0 | 1.0 | 0.00 | 0.24 | 0.00 | 90 | 1014.1 |
| 20260831113301 | 69 | 220 | 0.0 | 2.0 | 0.00 | 0.24 | 0.00 | 90 | 1014.0 |
| 20260831112801 | 69 | 41 | 0.0 | 1.0 | 0.00 | 0.24 | 0.00 | 90 | 1013.9 |
| 20260831112306 | 69 | 159 | 0.0 | 2.0 | 0.00 | 0.24 | 0.00 | 90 | 1013.8 |
| 20260831111802 | 69 | 159 | 1.0 | 2.0 | 0.00 | 0.24 | 0.00 | 90 | 1013.8 |
| 20260831111302 | 69 | 221 | 0.0 | 1.0 | 0.00 | 0.24 | 0.00 | 90 | 1013.8 |
| 20260831110802 | 69 | 221 | 0.0 | 1.0 | 0.00 | 0.24 | 0.00 | 90 | 1013.8 |
| 20260831110302 | 69 | 221 | 0.0 | 1.0 | 0.00 | 0.42 | 0.00 | 90 | 1013.8 |
| 20260831105801 | 69 | 221 | 0.0 | 3.0 | 0.00 | 0.42 | 0.00 | 90 | 1013.7 |
| 20260831105305 | 68 | 157 | 0.0 | 3.0 | 0.00 | 0.42 | 0.00 | 90 | 1013.7 |
| 20260831104801 | 68 | 163 | 1.0 | 3.0 | 0.00 | 0.42 | 0.00 | 90 | 1013.8 |
| 20260831104302 | 68 | 213 | 0.0 | 1.0 | 0.00 | 0.42 | 0.00 | 90 | 1013.8 |
| 20260831103801 | 68 | 336 | 0.0 | 1.0 | 0.00 | 0.42 | 0.00 | 90 | 1013.9 |
| 20260831103302 | 69 | 336 | 0.0 | 0.0 | 0.00 | 0.42 | 0.00 | 90 | 1013.9 |
| 20260831102802 | 69 | 336 | 0.0 | 0.0 | 0.00 | 0.42 | 0.00 | 90 | 1014.0 |
| 20260831102305 | 69 | 336 | 0.0 | 0.0 | 0.00 | 0.42 | 0.00 | 90 | 1014.1 |
| 20260831101802 | 69 | 336 | 0.0 | 0.0 | 0.00 | 0.42 | 0.00 | 90 | 1014.1 |
| 20260831101302 | 69 | 336 | 0.0 | 0.0 | 0.00 | 0.42 | 0.00 | 90 | 1014.2 |
| 20260831100802 | 69 | 336 | 0.0 | 0.0 | 0.00 | 0.42 | 0.00 | 90 | 1014.2 |
| 20260831100301 | 69 | 336 | 0.0 | 0.0 | 0.00 | 0.42 | 0.00 | 90 | 1014.3 |
| 20260831095802 | 69 | 336 | 0.0 | 0.0 | 0.00 | 0.42 | 0.00 | 90 | 1014.2 |
| 20260831095301 | 69 | 336 | 0.0 | 0.0 | 0.00 | 0.42 | 0.00 | 90 | 1014.3 |
| 20260831094801 | 69 | 336 | 0.0 | 0.0 | 0.00 | 0.42 | 0.00 | 90 | 1014.3 |
| 20260831094302 | 69 | 336 | 0.0 | 0.0 | 0.00 | 0.42 | 0.00 | 90 | 1014.4 |
| 20260831093801 | 69 | 336 | 0.0 | 0.0 | 0.00 | 0.42 | 0.00 | 90 | 1014.4 |
| 20260831093301 | 69 | 336 | 0.0 | 1.0 | 0.00 | 0.42 | 0.00 | 90 | 1014.4 |
| 20260831092802 | 69 | 336 | 0.0 | 1.0 | 0.00 | 0.42 | 0.00 | 90 | 1014.4 |
| 20260831092306 | 69 | 336 | 0.0 | 1.0 | 0.00 | 0.42 | 0.00 | 90 | 1014.4 |
| 20260831091556 | 69 | 347 | 0.0 | 1.0 | 0.00 | 0.42 | 0.00 | 90 | 1014.3 |
| 20260831091055 | 69 | 349 | 0.0 | 1.0 | 0.00 | 0.42 | 0.00 | 90 | 1014.3 |
| 20260831090555 | 69 | 266 | 0.0 | 1.0 | 0.00 | 0.42 | 0.00 | 90 | 1014.4 |
| 20260831090056 | 69 | 288 | 0.0 | 1.0 | 0.00 | 0.42 | 0.00 | 90 | 1014.4 |
| 20260831085556 | 69 | 276 | 0.0 | 1.0 | 0.00 | 0.42 | 0.00 | 90 | 1014.4 |
| 20260831085055 | 69 | 276 | 0.0 | 2.0 | 0.00 | 0.42 | 0.00 | 90 | 1014.3 |
| 20260831084555 | 69 | 326 | 0.0 | 2.0 | 0.00 | 0.42 | 0.00 | 90 | 1014.3 |
| 20260831084055 | 69 | 258 | 0.0 | 1.0 | 0.00 | 0.42 | 0.00 | 90 | 1014.2 |
| 20260831083555 | 69 | 258 | 0.0 | 1.0 | 0.00 | 0.42 | 0.00 | 90 | 1014.3 |
| 20260831083055 | 69 | 258 | 0.0 | 2.0 | 0.00 | 0.42 | 0.00 | 90 | 1014.3 |
| 20260831082555 | 69 | 276 | 1.0 | 2.0 | 0.00 | 0.42 | 0.00 | 90 | 1014.1 |
| 20260831082055 | 68 | 165 | 0.0 | 1.0 | 0.00 | 0.42 | 0.00 | 90 | 1014.1 |
| 20260831081556 | 69 | 159 | 0.0 | 2.0 | 0.00 | 0.42 | 0.00 | 90 | 1014.3 |
| 20260831081056 | 69 | 145 | 0.0 | 2.0 | 0.00 | 0.42 | 0.00 | 90 | 1014.1 |
| 20260831080555 | 69 | 46 | 0.0 | 1.0 | 0.00 | 0.42 | 0.00 | 90 | 1014.2 |
| 20260831080058 | 69 | 46 | 0.0 | 1.0 | 0.00 | 0.42 | 0.00 | 90 | 1014.3 |
| 20260831075556 | 68 | 61 | 0.0 | 1.0 | 0.00 | 0.42 | 0.00 | 90 | 1014.2 |
| 20260831075057 | 68 | 61 | 0.0 | 1.0 | 0.00 | 0.42 | 0.00 | 90 | 1014.2 |
| 20260831074557 | 68 | 61 | 0.0 | 1.0 | 0.00 | 0.42 | 0.00 | 90 | 1014.2 |
| 20260831074057 | 69 | 61 | 0.0 | 0.0 | 0.00 | 0.42 | 0.00 | 90 | 1014.2 |
| 20260831073556 | 69 | 61 | 0.0 | 0.0 | 0.00 | 0.42 | 0.00 | 90 | 1014.3 |
| 20260831073057 | 69 | 61 | 0.0 | 0.0 | 0.00 | 0.42 | 0.00 | 90 | 1014.3 |
| 20260831072556 | 69 | 61 | 0.0 | 1.0 | 0.00 | 0.42 | 0.00 | 90 | 1014.4 |
| 20260831072056 | 69 | 61 | 0.0 | 1.0 | 0.00 | 0.42 | 0.00 | 90 | 1014.3 |
| 20260831071556 | 69 | 55 | 0.0 | 0.0 | 0.00 | 0.42 | 0.00 | 90 | 1014.3 |
| 20260831071056 | 69 | 55 | 0.0 | 0.0 | 0.00 | 0.42 | 0.00 | 90 | 1014.4 |
| 20260831063056 | 69 | 82 | 0.0 | 2.0 | 0.00 | 0.42 | 0.00 | 90 | 1014.3 |
| 20260831062556 | 69 | 58 | 0.0 | 1.0 | 0.00 | 0.42 | 0.00 | 89 | 1014.3 |
| 20260831062056 | 69 | 55 | 0.0 | 1.0 | 0.00 | 0.42 | 0.00 | 89 | 1014.3 |
| 20260831061555 | 69 | 55 | 0.0 | 2.0 | 0.00 | 0.42 | 0.00 | 89 | 1014.2 |
| 20260831061055 | 69 | 55 | 0.0 | 2.0 | 0.00 | 0.42 | 0.00 | 89 | 1014.4 |
| 20260831060556 | 69 | 55 | 0.0 | 0.0 | 0.00 | 0.42 | 0.00 | 89 | 1014.5 |
| 20260831060056 | 69 | 55 | 0.0 | 0.0 | 0.00 | 0.42 | 0.00 | 89 | 1014.5 |
| 20260831055555 | 69 | 55 | 0.0 | 0.0 | 0.00 | 0.42 | 0.00 | 90 | 1014.6 |
| 20260831055055 | 69 | 55 | 0.0 | 1.0 | 0.00 | 0.42 | 0.00 | 90 | 1014.6 |
| 20260831054555 | 69 | 55 | 0.0 | 1.0 | 0.00 | 0.42 | 0.00 | 90 | 1014.6 |
| 20260831054055 | 69 | 55 | 0.0 | 1.0 | 0.00 | 0.42 | 0.00 | 90 | 1014.6 |
| 20260831053555 | 69 | 55 | 0.0 | 1.0 | 0.00 | 0.42 | 0.00 | 90 | 1014.6 |
| 20260831053055 | 69 | 55 | 0.0 | 1.0 | 0.00 | 0.42 | 0.00 | 90 | 1014.6 |
| 20260831052555 | 69 | 55 | 0.0 | 1.0 | 0.00 | 0.42 | 0.00 | 90 | 1014.7 |
| 20260831052055 | 69 | 55 | 0.0 | 2.0 | 0.00 | 0.42 | 0.00 | 90 | 1014.8 |
| 20260831051555 | 69 | 55 | 0.0 | 2.0 | 0.00 | 0.42 | 0.00 | 90 | 1014.8 |
| 20260831051055 | 69 | 59 | 0.0 | 2.0 | 0.00 | 0.42 | 0.00 | 89 | 1014.8 |
| 20260831050555 | 69 | 34 | 0.0 | 0.0 | 0.00 | 0.42 | 0.00 | 89 | 1014.9 |
| 20260831050059 | 69 | 34 | 0.0 | 2.0 | 0.00 | 0.42 | 0.00 | 89 | 1014.8 |
| 20260831045556 | 69 | 34 | 0.0 | 2.0 | 0.00 | 0.42 | 0.00 | 89 | 1014.8 |
| 20260831045057 | 69 | 162 | 0.0 | 0.0 | 0.00 | 0.42 | 0.00 | 89 | 1014.9 |
| 20260831044556 | 69 | 90 | 0.0 | 1.0 | 0.00 | 0.42 | 0.00 | 89 | 1014.9 |
| 20260831044057 | 69 | 90 | 0.0 | 1.0 | 0.00 | 0.42 | 0.00 | 89 | 1014.8 |
| 20260831043556 | 69 | 90 | 0.0 | 1.0 | 0.00 | 0.42 | 0.00 | 89 | 1014.7 |
| 20260831043057 | 69 | 90 | 0.0 | 2.0 | 0.00 | 0.42 | 0.00 | 89 | 1014.7 |
| 20260831042556 | 69 | 90 | 0.0 | 2.0 | 0.00 | 0.42 | 0.00 | 89 | 1014.6 |
| 20260831042056 | 69 | 97 | 0.0 | 2.0 | 0.00 | 0.42 | 0.00 | 89 | 1014.6 |
| 20260831041556 | 69 | 176 | 0.0 | 0.0 | 0.00 | 0.42 | 0.00 | 88 | 1014.6 |
| 20260831033556 | 70 | 176 | 0.0 | 1.0 | 0.00 | 0.42 | 0.42 | 88 | 1014.5 |
| 20260831033056 | 70 | 180 | 0.0 | 0.0 | 0.00 | 0.42 | 0.42 | 87 | 1014.7 |
| 20260831032556 | 71 | 180 | 0.0 | 0.0 | 0.00 | 0.42 | 0.42 | 87 | 1014.7 |
| 20260831032056 | 71 | 180 | 0.0 | 0.0 | 0.00 | 0.42 | 0.42 | 87 | 1014.8 |
| 20260831031557 | 71 | 180 | 0.0 | 0.0 | 0.00 | 0.42 | 0.42 | 87 | 1014.7 |
| 20260831031057 | 71 | 180 | 0.0 | 0.0 | 0.00 | 0.42 | 0.42 | 86 | 1014.7 |
| 20260831030557 | 71 | 180 | 0.0 | 0.0 | 0.00 | 0.42 | 0.42 | 86 | 1014.7 |
| 20260831030057 | 71 | 180 | 0.0 | 0.0 | 0.00 | 0.42 | 0.42 | 86 | 1014.7 |
| 20260831025557 | 71 | 180 | 0.0 | 0.0 | 0.00 | 0.42 | 0.42 | 86 | 1014.7 |
| 20260831025056 | 71 | 180 | 0.0 | 0.0 | 0.00 | 0.42 | 0.42 | 86 | 1014.6 |
| 20260831024556 | 72 | 180 | 0.0 | 0.0 | 0.00 | 0.42 | 0.42 | 86 | 1014.7 |
| 20260831024056 | 72 | 180 | 0.0 | 0.0 | 0.00 | 0.42 | 0.42 | 86 | 1014.7 |
| 20260831023557 | 72 | 180 | 0.0 | 0.0 | 0.00 | 0.42 | 0.42 | 86 | 1014.7 |
| 20260831023056 | 72 | 180 | 0.0 | 0.0 | 0.00 | 0.42 | 0.42 | 86 | 1014.6 |
| 20260831015057 | 73 | 179 | 0.0 | 3.0 | 0.00 | 0.43 | 0.42 | 84 | 1014.3 |
| 20260831014557 | 73 | 225 | 0.0 | 1.0 | 0.00 | 0.43 | 0.42 | 84 | 1014.3 |
| 20260831014058 | 73 | 223 | 0.0 | 1.0 | 0.00 | 0.43 | 0.42 | 83 | 1014.2 |
| 20260831013558 | 73 | 221 | 0.0 | 0.0 | 0.00 | 0.43 | 0.42 | 83 | 1014.1 |
| 20260831013058 | 73 | 222 | 0.0 | 0.0 | 0.00 | 0.43 | 0.42 | 82 | 1014.0 |
| 20260831012557 | 73 | 221 | 0.0 | 0.0 | 0.00 | 0.43 | 0.42 | 83 | 1014.1 |
| 20260831012058 | 74 | 221 | 0.0 | 0.0 | 0.00 | 0.43 | 0.42 | 83 | 1014.1 |
| 20260831011558 | 74 | 221 | 0.0 | 0.0 | 0.00 | 0.43 | 0.42 | 83 | 1014.0 |
| 20260831011059 | 74 | 222 | 0.0 | 1.0 | 0.00 | 0.43 | 0.42 | 83 | 1013.9 |
| 20260831010558 | 74 | 221 | 0.0 | 1.0 | 0.00 | 0.43 | 0.42 | 82 | 1013.7 |
| 20260831010057 | 74 | 222 | 0.0 | 0.0 | 0.00 | 0.43 | 0.42 | 82 | 1013.7 |
| 20260831005557 | 74 | 223 | 0.0 | 1.0 | 0.00 | 0.43 | 0.42 | 82 | 1013.6 |
| 20260831005056 | 75 | 354 | 0.0 | 2.0 | 0.00 | 0.43 | 0.42 | 82 | 1013.5 |
| 20260831004556 | 75 | 103 | 0.0 | 1.0 | 0.00 | 0.43 | 0.42 | 82 | 1013.5 |
| 20260831004056 | 75 | 201 | 0.0 | 2.0 | 0.00 | 0.43 | 0.42 | 81 | 1013.5 |
| 20260831003556 | 75 | 201 | 1.0 | 2.0 | 0.00 | 0.43 | 0.42 | 81 | 1013.5 |
| 20260831003056 | 75 | 215 | 0.0 | 3.0 | 0.00 | 0.43 | 0.42 | 81 | 1013.5 |
| 20260831002556 | 75 | 305 | 1.0 | 3.0 | 0.00 | 0.43 | 0.42 | 81 | 1013.6 |
| 20260831002056 | 75 | 182 | 1.0 | 2.0 | 0.00 | 0.43 | 0.42 | 80 | 1013.6 |
| 20260831001557 | 76 | 180 | 0.0 | 5.0 | 0.00 | 0.43 | 0.42 | 80 | 1013.6 |
| 20260831001056 | 76 | 244 | 0.0 | 5.0 | 0.00 | 0.43 | 0.42 | 80 | 1013.6 |
| 20260831000557 | 76 | 345 | 1.0 | 4.0 | 0.00 | 0.43 | 0.42 | 80 | 1013.6 |
| 20260831000059 | 76 | 296 | 2.0 | 5.0 | 0.00 | 0.43 | 0.42 | 80 | 1013.5 |
| 20260830235557 | 76 | 222 | 2.0 | 4.0 | 0.00 | 0.43 | 0.42 | 80 | 1013.6 |
| 20260830235057 | 76 | 228 | 3.0 | 4.0 | 0.00 | 0.43 | 0.42 | 80 | 1013.4 |
| 20260830234558 | 76 | 194 | 2.0 | 5.0 | 0.00 | 0.43 | 0.42 | 80 | 1013.4 |